| time (UTC) | temp F | wind direction | speed MPH | gust MPH | rain 1hr in | rain 24hr in | rain mn in | humidity % | barometer mb |
| 20260507163043 | 52 | 63 | 3.0 | 14.0 | 0.00 | 0.25 | 0.06 | 51 | 1011.8 |
| 20260507161540 | 53 | 326 | 5.0 | 11.0 | 0.00 | 0.25 | 0.06 | 51 | 1011.8 |
| 20260507160044 | 52 | 24 | 2.0 | 8.0 | 0.00 | 0.25 | 0.06 | 55 | 1012.0 |
| 20260507154534 | 52 | 31 | 0.0 | 7.0 | 0.00 | 0.27 | 0.06 | 52 | 1012.1 |
| 20260507153032 | 52 | 196 | 1.0 | 8.0 | 0.00 | 0.27 | 0.06 | 53 | 1012.2 |
| 20260507151527 | 51 | 340 | 3.0 | 9.0 | 0.00 | 0.27 | 0.06 | 54 | 1012.4 |
| 20260507150029 | 50 | 312 | 2.0 | 7.0 | 0.00 | 0.27 | 0.06 | 60 | 1012.5 |
| 20260507144531 | 49 | 293 | 3.0 | 10.0 | 0.00 | 0.27 | 0.06 | 59 | 1012.5 |
| 20260507143021 | 49 | 20 | 3.0 | 11.0 | 0.00 | 0.27 | 0.06 | 61 | 1012.5 |
| 20260507141521 | 48 | 295 | 5.0 | 10.0 | 0.00 | 0.27 | 0.06 | 63 | 1012.4 |
| 20260507140014 | 48 | 39 | 5.0 | 9.0 | 0.00 | 0.27 | 0.06 | 68 | 1012.7 |
| 20260507134513 | 47 | 342 | 2.0 | 7.0 | 0.00 | 0.27 | 0.06 | 71 | 1012.5 |
| 20260507133012 | 46 | 14 | 5.0 | 9.0 | 0.00 | 0.27 | 0.06 | 73 | 1012.6 |
| 20260507131508 | 46 | 49 | 4.0 | 8.0 | 0.00 | 0.27 | 0.06 | 75 | 1012.4 |
| 20260507130020 | 45 | 326 | 2.0 | 9.0 | 0.00 | 0.27 | 0.06 | 80 | 1012.1 |
| 20260507124506 | 44 | 321 | 4.0 | 9.0 | 0.00 | 0.27 | 0.06 | 80 | 1012.0 |
| 20260507123005 | 44 | 282 | 3.0 | 14.0 | 0.00 | 0.27 | 0.06 | 81 | 1011.9 |
| 20260507121601 | 44 | 333 | 3.0 | 10.0 | 0.00 | 0.27 | 0.06 | 86 | 1012.0 |
| 20260507120058 | 43 | 60 | 3.0 | 10.0 | 0.00 | 0.27 | 0.06 | 88 | 1011.9 |
| 20260507114612 | 43 | 301 | 4.0 | 9.0 | 0.00 | 0.27 | 0.06 | 90 | 1011.8 |
| 20260507113057 | 43 | 18 | 4.0 | 8.0 | 0.00 | 0.27 | 0.06 | 92 | 1011.8 |
| 20260507111553 | 42 | 41 | 1.0 | 6.0 | 0.00 | 0.27 | 0.06 | 94 | 1011.5 |
| 20260507110051 | 42 | 330 | 2.0 | 8.0 | 0.00 | 0.27 | 0.06 | 94 | 1011.3 |
| 20260507104554 | 42 | 308 | 2.0 | 8.0 | 0.00 | 0.27 | 0.06 | 95 | 1011.0 |
| 20260507103047 | 42 | 46 | 3.0 | 6.0 | 0.00 | 0.27 | 0.06 | 95 | 1010.7 |
| 20260507101549 | 42 | 2 | 1.0 | 9.0 | 0.00 | 0.27 | 0.06 | 95 | 1010.7 |
| 20260507100047 | 42 | 37 | 2.0 | 6.0 | 0.00 | 0.27 | 0.06 | 95 | 1010.6 |
| 20260507094545 | 42 | 304 | 3.0 | 0.0 | 0.00 | 0.00 | 0.06 | 95 | 1010.6 |
| 20260507093045 | 42 | 302 | 1.0 | 5.0 | 0.00 | 0.27 | 0.06 | 95 | 1010.4 |
| 20260507091545 | 42 | 15 | 2.0 | 6.0 | 0.00 | 0.27 | 0.06 | 95 | 1010.3 |
| 20260507090041 | 43 | 326 | 2.0 | 8.0 | 0.00 | 0.27 | 0.06 | 95 | 1010.1 |
| 20260507084541 | 43 | 49 | 3.0 | 5.0 | 0.00 | 0.27 | 0.06 | 95 | 1010.3 |
| 20260507083039 | 43 | 23 | 2.0 | 9.0 | 0.00 | 0.27 | 0.06 | 95 | 1010.4 |
| 20260507081537 | 43 | 321 | 2.0 | 8.0 | 0.00 | 0.27 | 0.06 | 95 | 1010.4 |
| 20260507080037 | 43 | 40 | 3.0 | 7.0 | 0.01 | 0.27 | 0.06 | 95 | 1010.3 |
| 20260507074537 | 43 | 337 | 2.0 | 10.0 | 0.03 | 0.27 | 0.06 | 95 | 1010.4 |
| 20260507073036 | 44 | 39 | 3.0 | 10.0 | 0.03 | 0.27 | 0.06 | 95 | 1010.6 |
| 20260507071531 | 44 | 319 | 4.0 | 11.0 | 0.04 | 0.27 | 0.06 | 94 | 1010.6 |
| 20260507070129 | 44 | 322 | 2.0 | 5.0 | 0.04 | 0.27 | 0.06 | 94 | 1010.6 |
| 20260507064526 | 44 | 323 | 3.0 | 6.0 | 0.02 | 0.24 | 0.03 | 93 | 1010.5 |
| 20260507063039 | 44 | 307 | 2.0 | 9.0 | 0.03 | 0.24 | 0.03 | 93 | 1010.4 |
| 20260507061526 | 45 | 338 | 3.0 | 8.0 | 0.02 | 0.23 | 0.02 | 92 | 1010.5 |
| 20260507060035 | 45 | 50 | 4.0 | 10.0 | 0.01 | 0.22 | 0.01 | 92 | 1010.6 |
| 20260507054518 | 46 | 333 | 4.0 | 9.0 | 0.01 | 0.22 | 0.01 | 92 | 1010.2 |
| 20260507053015 | 46 | 23 | 4.0 | 13.0 | 0.00 | 0.21 | 0.00 | 92 | 1009.6 |
| 20260507051514 | 46 | 335 | 2.0 | 9.0 | 0.00 | 0.21 | 0.00 | 92 | 1009.6 |
| 20260507050010 | 46 | 323 | 4.0 | 10.0 | 0.00 | 0.21 | 0.00 | 92 | 1009.7 |
| 20260507044507 | 47 | 13 | 5.0 | 9.0 | 0.00 | 0.21 | 0.00 | 92 | 1009.8 |
| 20260507043006 | 47 | 323 | 3.0 | 10.0 | 0.00 | 0.21 | 0.00 | 92 | 1010.2 |
| 20260507041503 | 47 | 323 | 3.0 | 8.0 | 0.00 | 0.21 | 0.00 | 93 | 1010.0 |
| 20260507040111 | 47 | 319 | 3.0 | 6.0 | 0.00 | 0.21 | 0.00 | 93 | 1009.9 |
| 20260507034609 | 47 | 331 | 2.0 | 7.0 | 0.00 | 0.21 | 0.21 | 93 | 1009.7 |
| 20260507033104 | 47 | 347 | 4.0 | 9.0 | 0.00 | 0.21 | 0.21 | 92 | 1009.8 |
| 20260507031618 | 47 | 297 | 3.0 | 8.0 | 0.00 | 0.21 | 0.21 | 92 | 1009.7 |
| 20260507030056 | 48 | 332 | 3.0 | 9.0 | 0.00 | 0.21 | 0.21 | 92 | 1009.7 |
| 20260507024653 | 48 | 338 | 3.0 | 8.0 | 0.00 | 0.21 | 0.21 | 92 | 1009.8 |
| 20260507023051 | 48 | 304 | 4.0 | 9.0 | 0.00 | 0.21 | 0.21 | 92 | 1009.8 |
| 20260507021549 | 49 | 328 | 4.0 | 8.0 | 0.00 | 0.21 | 0.21 | 93 | 1010.3 |
| 20260507020047 | 49 | 17 | 3.0 | 8.0 | 0.00 | 0.21 | 0.21 | 93 | 1010.2 |
| 20260507014550 | 50 | 301 | 3.0 | 12.0 | 0.00 | 0.21 | 0.21 | 94 | 1010.0 |
| 20260507013049 | 51 | 10 | 5.0 | 10.0 | 0.00 | 0.21 | 0.21 | 94 | 1009.7 |
| 20260507011538 | 52 | 322 | 3.0 | 9.0 | 0.01 | 0.21 | 0.21 | 95 | 1009.6 |
| 20260507010045 | 53 | 329 | 2.0 | 7.0 | 0.05 | 0.21 | 0.21 | 95 | 1009.4 |
| 20260507004532 | 53 | 334 | 3.0 | 7.0 | 0.05 | 0.21 | 0.21 | 95 | 1009.2 |
| 20260507003030 | 54 | 339 | 4.0 | 9.0 | 0.05 | 0.21 | 0.21 | 94 | 1008.8 |
| 20260507001530 | 56 | 20 | 5.0 | 13.0 | 0.04 | 0.20 | 0.20 | 93 | 1008.5 |
| 20260507000023 | 58 | 247 | 1.0 | 3.0 | 0.00 | 0.16 | 0.16 | 96 | 1007.9 |
| 20260506234530 | 58 | 233 | 1.0 | 4.0 | 0.00 | 0.16 | 0.16 | 96 | 1008.0 |
| 20260506233022 | 58 | 212 | 0.0 | 3.0 | 0.00 | 0.16 | 0.16 | 96 | 1007.7 |
| 20260506231527 | 58 | 227 | 1.0 | 4.0 | 0.00 | 0.16 | 0.16 | 96 | 1007.6 |
| 20260506230026 | 58 | 262 | 1.0 | 4.0 | 0.00 | 0.16 | 0.16 | 96 | 1007.7 |
| 20260506224521 | 58 | 229 | 1.0 | 5.0 | 0.00 | 0.16 | 0.16 | 96 | 1007.6 |
| 20260506223020 | 58 | 266 | 1.0 | 5.0 | 0.00 | 0.16 | 0.16 | 96 | 1007.4 |
| 20260506221520 | 58 | 230 | 1.0 | 4.0 | 0.00 | 0.16 | 0.16 | 96 | 1007.3 |
| 20260506220024 | 58 | 253 | 1.0 | 8.0 | 0.00 | 0.16 | 0.16 | 96 | 1007.1 |
| 20260506214518 | 58 | 284 | 1.0 | 5.0 | 0.00 | 0.16 | 0.16 | 96 | 1006.9 |
| 20260506213017 | 58 | 256 | 1.0 | 4.0 | 0.00 | 0.16 | 0.16 | 96 | 1007.1 |
| 20260506211524 | 58 | 311 | 1.0 | 5.0 | 0.00 | 0.16 | 0.16 | 96 | 1006.9 |
| 20260506210025 | 57 | 218 | 2.0 | 7.0 | 0.00 | 0.16 | 0.16 | 96 | 1006.7 |
| 20260506204516 | 57 | 270 | 3.0 | 6.0 | 0.00 | 0.16 | 0.16 | 96 | 1006.6 |
| 20260506203014 | 57 | 236 | 3.0 | 0.0 | 0.00 | 0.00 | 0.16 | 96 | 1006.4 |
| 20260506201516 | 57 | 240 | 1.0 | 4.0 | 0.01 | 0.16 | 0.16 | 95 | 1006.6 |
| 20260506200030 | 57 | 240 | 1.0 | 6.0 | 0.02 | 0.16 | 0.16 | 95 | 1006.6 |
| 20260506194513 | 58 | 212 | 1.0 | 6.0 | 0.04 | 0.16 | 0.16 | 96 | 1006.9 |
| 20260506193009 | 57 | 222 | 3.0 | 7.0 | 0.06 | 0.16 | 0.16 | 95 | 1007.2 |
| 20260506191509 | 58 | 249 | 2.0 | 5.0 | 0.06 | 0.15 | 0.15 | 95 | 1007.3 |
| 20260506190007 | 58 | 165 | 1.0 | 3.0 | 0.06 | 0.14 | 0.14 | 95 | 1007.2 |
| 20260506184506 | 58 | 222 | 1.0 | 4.0 | 0.03 | 0.11 | 0.11 | 95 | 1007.5 |
| 20260506183006 | 58 | 228 | 1.0 | 4.0 | 0.02 | 0.10 | 0.10 | 95 | 1007.5 |
| 20260506181505 | 57 | 231 | 2.0 | 5.0 | 0.02 | 0.09 | 0.09 | 95 | 1007.5 |
| 20260506180014 | 57 | 243 | 2.0 | 6.0 | 0.01 | 0.08 | 0.08 | 94 | 1007.6 |
| 20260506174503 | 57 | 128 | 1.0 | 7.0 | 0.02 | 0.08 | 0.08 | 94 | 1007.7 |
| 20260506173003 | 57 | 212 | 2.0 | 6.0 | 0.02 | 0.08 | 0.08 | 94 | 1007.8 |
| 20260506171611 | 58 | 198 | 3.0 | 6.0 | 0.03 | 0.07 | 0.07 | 94 | 1007.5 |
| 20260506170112 | 58 | 179 | 2.0 | 10.0 | 0.05 | 0.07 | 0.07 | 94 | 1007.5 |
| 20260506164614 | 58 | 214 | 2.0 | 6.0 | 0.04 | 0.06 | 0.06 | 93 | 1007.7 |